CW1734 Weather Reports


time (UTC)temp
C
wind
direction
speed
KPH
gust
KPH
rain 1hr
cm
rain 24hr
cm
rain mn
cm
humidity
%
barometer
mb
20260502123403 17 125 4.8 12.9 0.00 0.00 0.00 63 1014.5
20260502122903 17 88 9.7 19.3 0.00 0.00 0.00 61 1014.9
20260502121903 18 116 4.8 14.5 0.00 0.00 0.00 61 1014.9
20260502121403 19 98 4.8 14.5 0.00 0.00 0.00 60 1015.0
20260502120902 19 136 4.8 11.3 0.00 0.00 0.00 61 1015.0
20260502120403 18 63 4.8 12.9 0.00 0.00 0.00 61 1015.0
20260502115903 18 75 4.8 11.3 0.00 0.00 0.00 62 1015.0
20260502115403 18 74 8.0 12.9 0.00 0.00 0.00 62 1015.0
20260502114903 18 93 4.8 12.9 0.00 0.00 0.00 67 1015.2
20260502114403 18 116 8.0 19.3 0.00 0.00 0.00 67 1015.3
20260502113403 18 79 6.4 12.9 0.00 0.00 0.00 72 1015.3
20260502112903 17 23 8.0 12.9 0.00 0.00 0.00 73 1015.6
20260502112403 17 31 9.7 12.9 0.00 0.00 0.00 74 1015.6
20260502111903 17 353 8.0 12.9 0.00 0.00 0.00 74 1015.6
20260502111403 17 17 8.0 12.9 0.00 0.00 0.00 74 1016.1
20260502110903 17 40 9.7 12.9 0.00 0.00 0.00 74 1016.1
20260502105903 17 21 9.7 16.1 0.00 0.00 0.00 76 1016.1
20260502105403 16 47 9.7 16.1 0.00 0.00 0.00 77 1016.1
20260502104903 16 34 9.7 16.1 0.00 0.00 0.00 77 1016.5
20260502104402 16 34 8.0 12.9 0.00 0.00 0.00 78 1016.5
20260502103903 16 33 11.3 16.1 0.00 0.00 0.00 78 1016.5
20260502102903 16 26 8.0 12.9 0.00 0.00 0.00 79 1016.5
20260502101903 15 26 8.0 12.9 0.00 0.00 0.00 79 1016.5
20260502100903 16 52 4.8 11.3 0.00 0.00 0.00 80 1016.8
20260502100403 16 29 4.8 14.5 0.00 0.00 0.00 82 1016.8
20260502091403 15 351 4.8 8.0 0.00 0.00 0.00 82 1017.4
20260502090403 13 337 0.0 4.8 0.00 0.00 0.00 85 1017.4
20260502071403 11 135 0.0 0.0 0.00 0.00 0.00 92 1018.1
20260502070903 11 171 0.0 0.0 0.00 0.00 0.00 92 1018.1
20260502065903 11 152 0.0 0.0 0.00 0.00 0.00 92 1018.1
20260502065403 11 85 0.0 1.6 0.00 0.00 0.00 92 1018.1
20260502064903 11 91 0.0 0.0 0.00 0.00 0.00 92 1018.1
20260502064402 11 164 0.0 0.0 0.00 0.00 0.00 92 1018.1
20260502063903 11 150 0.0 0.0 0.00 0.00 0.00 92 1017.9
20260502063404 11 112 0.0 1.6 0.00 0.00 0.00 92 1017.9
20260502062903 11 112 0.0 0.0 0.00 0.00 0.00 92 1017.9
20260502062403 11 112 0.0 0.0 0.00 0.00 0.00 92 1017.9
20260502061903 11 112 0.0 0.0 0.00 0.00 0.00 92 1018.0
20260502061403 11 250 0.0 0.0 0.00 0.00 0.00 92 1018.0
20260502060903 11 250 0.0 0.0 0.00 0.00 0.00 92 1018.0
20260502060402 11 250 0.0 1.6 0.00 0.00 0.00 92 1018.0
20260502055903 11 281 0.0 1.6 0.00 0.00 0.00 92 1017.9
20260502054903 11 289 3.2 4.8 0.00 0.00 0.00 92 1017.9
20260502054403 11 291 3.2 4.8 0.00 0.00 0.00 92 1018.0
20260502053903 11 291 3.2 4.8 0.00 0.00 0.00 92 1018.0
20260502052403 11 298 0.0 0.0 0.00 0.00 0.00 92 1018.0
20260502051903 11 298 0.0 0.0 0.00 0.00 0.00 92 1018.0
20260502051403 11 298 0.0 8.0 0.00 0.00 0.00 92 1018.0
20260502050902 11 255 0.0 0.0 0.00 0.00 0.00 92 1018.0
20260502050403 11 244 0.0 3.2 0.00 0.00 0.00 92 1018.0
20260502045903 11 256 3.2 8.0 0.00 0.00 0.00 92 1018.0
20260502045403 11 237 0.0 3.2 0.00 0.00 0.00 92 1018.2
20260502044903 11 276 0.0 0.0 0.00 0.00 0.00 92 1018.2
20260502043403 11 276 0.0 0.0 0.00 0.00 0.00 92 1018.2
20260502042903 11 276 0.0 3.2 0.00 0.00 0.00 92 1018.2
20260502042403 11 276 0.0 3.2 0.00 0.00 0.00 92 1018.2
20260502041403 11 284 3.2 8.0 0.00 0.00 0.00 92 1018.2
20260502040403 11 243 0.0 0.0 0.00 0.00 0.00 92 1018.2
20260502035903 11 226 0.0 0.0 0.00 0.00 0.00 92 1018.2
20260502035403 11 226 0.0 0.0 0.00 0.00 0.00 92 1018.2
20260502034903 11 197 3.2 8.0 0.00 0.00 0.00 92 1018.2
20260502033903 10 222 3.2 8.0 0.00 0.00 0.00 92 1018.2
20260502033403 10 218 1.6 4.8 0.00 0.00 0.00 92 1018.2
20260502032903 10 216 0.0 3.2 0.00 0.00 0.00 92 1018.3
20260502032403 10 217 0.0 0.0 0.00 0.00 0.00 92 1018.3
20260502031903 10 216 0.0 4.8 0.00 0.00 0.00 92 1018.3
20260502031403 10 210 3.2 8.0 0.00 0.00 0.00 92 1018.7
20260502030903 10 224 0.0 4.8 0.00 0.00 0.00 92 1018.7
20260502025403 10 213 1.6 8.0 0.00 0.00 0.00 92 1018.7
20260502024403 10 206 0.0 3.2 0.00 0.00 0.00 92 1018.7
20260502023403 10 215 3.2 4.8 0.00 0.00 0.00 92 1018.7
20260502022903 10 206 0.0 0.0 0.00 0.00 0.00 92 1018.8
20260502022403 10 208 0.0 4.8 0.00 0.00 0.00 92 1018.8
20260502021403 10 197 1.6 4.8 0.00 0.00 0.00 92 1018.9
20260502020903 10 204 1.6 4.8 0.00 0.00 0.00 92 1018.9
20260502020403 10 210 3.2 4.8 0.00 0.00 0.00 91 1018.9
20260502015903 10 210 1.6 4.8 0.00 0.00 0.00 91 1018.9
20260502015403 10 233 0.0 3.2 0.00 0.00 0.00 91 1018.9
20260502014903 10 252 1.6 4.8 0.00 0.00 0.00 91 1018.9
20260502014403 10 212 1.6 9.7 0.00 0.00 0.00 91 1018.9
20260502013903 10 220 0.0 0.0 0.00 0.00 0.00 91 1018.9
20260502012903 10 214 0.0 0.0 0.00 0.00 0.00 90 1019.1
20260502012403 10 207 1.6 8.0 0.00 0.00 0.00 91 1019.0
20260502011903 10 200 4.8 9.7 0.00 0.00 0.00 91 1019.0
20260502011403 10 209 3.2 9.7 0.00 0.00 0.00 91 1019.0
20260502010903 10 204 8.0 11.3 0.00 0.00 0.00 91 1019.2
20260502010403 10 212 6.4 11.3 0.00 0.00 0.00 91 1019.2
20260502005903 10 199 8.0 16.1 0.00 0.00 0.00 91 1019.3
20260502005403 10 201 8.0 14.5 0.00 0.00 0.00 91 1019.3
20260502004403 10 201 4.8 9.7 0.00 0.00 0.00 91 1019.5
20260502003903 10 203 8.0 14.5 0.00 0.00 0.00 91 1019.5
20260502003403 10 218 6.4 11.3 0.00 0.00 0.00 91 1019.5
20260502002903 10 221 4.8 9.7 0.00 0.00 0.00 91 1019.5
20260502002404 10 214 6.4 9.7 0.00 0.00 0.00 91 1019.4
20260502001903 10 218 3.2 8.0 0.00 0.00 0.00 91 1019.4
20260502001403 10 231 3.2 14.5 0.00 0.00 0.00 91 1019.5
20260502000902 10 216 4.8 9.7 0.00 0.00 0.00 91 1019.5
20260502000403 10 251 4.8 12.9 0.00 0.00 0.00 91 1019.6
20260501235903 11 224 3.2 9.7 0.00 0.00 0.00 91 1019.6
20260501235403 11 222 4.8 9.7 0.00 0.00 0.00 91 1020.1
20260501234903 10 229 3.2 8.0 0.00 0.00 0.00 91 1020.1
20260501234403 10 242 1.6 4.8 0.00 0.00 0.00 91 1020.1
20260501233903 11 235 3.2 9.7 0.00 0.00 0.00 91 1020.1
20260501233403 11 221 4.8 9.7 0.00 0.00 0.00 91 1020.1
20260501232902 11 210 4.8 9.7 0.00 0.00 0.00 91 1020.1
20260501232403 11 226 4.8 14.5 0.00 0.00 0.00 91 1020.1
20260501231903 10 215 6.4 11.3 0.00 0.00 0.00 91 1020.1
20260501231403 10 225 3.2 4.8 0.00 0.00 0.00 91 1020.1
20260501225903 10 217 4.8 9.7 0.00 0.00 0.00 91 1020.0
20260501225403 10 227 3.2 11.3 0.00 0.00 0.00 91 1019.9
20260501224902 10 227 1.6 9.7 0.00 0.00 0.00 91 1019.9
20260501224403 10 245 1.6 8.0 0.00 0.00 0.00 91 1019.9
20260501223903 10 216 4.8 11.3 0.00 0.00 0.00 91 1019.9
20260501222903 10 208 4.8 11.3 0.00 0.00 0.00 91 1019.9
20260501221903 10 208 3.2 9.7 0.00 0.00 0.00 91 1019.9
20260501221403 10 201 3.2 11.3 0.00 0.00 0.00 91 1019.9
20260501220903 10 210 6.4 9.7 0.00 0.00 0.00 91 1019.9
20260501220403 10 201 4.8 11.3 0.00 0.00 0.00 90 1019.9
20260501215402 10 199 6.4 11.3 0.00 0.00 0.00 90 1019.9
20260501214903 10 199 4.8 9.7 0.00 0.00 0.00 90 1019.9
20260501214403 10 195 6.4 11.3 0.00 0.00 0.00 90 1019.9
20260501213903 10 203 4.8 9.7 0.00 0.00 0.00 90 1019.9
20260501213403 10 194 4.8 9.7 0.00 0.00 0.00 90 1019.9
20260501212903 10 196 6.4 9.7 0.00 0.00 0.00 90 1019.9
20260501212403 10 205 4.8 9.7 0.00 0.00 0.00 90 1019.9
20260501211403 11 192 4.8 11.3 0.00 0.00 0.00 89 1019.9
20260501210903 11 192 6.4 11.3 0.00 0.00 0.00 89 1019.9
20260501210403 11 186 6.4 11.3 0.00 0.00 0.00 89 1019.9
20260501205903 11 184 8.0 12.9 0.00 0.00 0.00 89 1019.7
20260501205403 11 189 4.8 11.3 0.00 0.00 0.00 89 1019.7
20260501204402 11 196 4.8 11.3 0.00 0.00 0.00 89 1019.8
20260501203903 11 217 4.8 11.3 0.00 0.00 0.00 89 1019.8
20260501202903 11 204 1.6 8.0 0.00 0.00 0.00 88 1019.8
20260501202403 11 177 4.8 11.3 0.00 0.00 0.00 88 1019.8
20260501201903 11 198 6.4 14.5 0.00 0.00 0.00 88 1019.6
20260501201403 11 201 8.0 12.9 0.00 0.00 0.00 88 1019.6
20260501200903 11 209 6.4 11.3 0.00 0.00 0.00 88 1019.6
20260501200403 11 191 4.8 12.9 0.00 0.00 0.00 87 1019.6
20260501195903 11 204 4.8 9.7 0.00 0.00 0.00 87 1019.6
20260501195403 11 205 6.4 11.3 0.00 0.00 0.00 87 1019.6
20260501194903 11 193 8.0 11.3 0.00 0.00 0.00 86 1019.6
20260501193902 11 201 4.8 16.1 0.00 0.00 0.00 86 1019.6
20260501192903 12 214 8.0 12.9 0.00 0.00 0.00 85 1019.4
20260501192403 12 195 8.0 16.1 0.00 0.00 0.00 85 1019.4
20260501191903 12 203 9.7 14.5 0.00 0.00 0.00 84 1019.4
20260501191402 12 193 8.0 16.1 0.00 0.00 0.00 84 1019.4
20260501185903 12 201 8.0 12.9 0.00 0.00 0.00 82 1019.4
20260501185403 12 206 9.7 16.1 0.00 0.00 0.00 81 1019.4
20260501184903 12 188 8.0 12.9 0.00 0.00 0.00 80 1019.5
20260501184403 13 212 8.0 14.5 0.00 0.00 0.00 79 1019.5
20260501183903 13 198 8.0 14.5 0.00 0.00 0.00 78 1019.5
20260501183403 13 206 4.8 12.9 0.00 0.00 0.00 78 1019.5
20260501182903 13 199 4.8 14.5 0.00 0.00 0.00 77 1019.4
20260501182403 14 234 8.0 14.5 0.00 0.00 0.00 76 1019.4
20260501181903 14 204 3.2 4.8 0.00 0.00 0.00 77 1019.4
20260501181402 14 239 3.2 9.7 0.00 0.00 0.00 76 1019.4
20260501180903 14 220 3.2 12.9 0.00 0.00 0.00 77 1019.3
20260501180403 14 230 3.2 8.0 0.00 0.00 0.00 76 1019.3
20260501175903 14 238 4.8 9.7 0.00 0.00 0.00 76 1019.2
20260501175403 14 220 4.8 11.3 0.00 0.00 0.00 76 1019.1
20260501174903 14 203 8.0 16.1 0.00 0.00 0.00 76 1019.3
20260501174403 14 209 8.0 11.3 0.00 0.00 0.00 76 1019.3
20260501173903 15 199 8.0 14.5 0.00 0.00 0.00 76 1019.3
20260501173403 15 201 6.4 11.3 0.00 0.00 0.00 75 1019.3
20260501172403 15 246 4.8 11.3 0.00 0.00 0.00 74 1019.4
20260501171902 15 274 8.0 12.9 0.00 0.00 0.00 74 1019.2
20260501171402 15 278 6.4 11.3 0.00 0.00 0.00 74 1019.2
20260501170903 15 264 4.8 9.7 0.00 0.00 0.00 73 1019.2
20260501170402 15 263 3.2 9.7 0.00 0.00 0.00 72 1019.2
20260501165903 16 223 4.8 12.9 0.00 0.00 0.00 73 1019.3
20260501165403 16 209 4.8 11.3 0.00 0.00 0.00 73 1019.4
20260501164903 16 158 9.7 19.3 0.00 0.00 0.00 71 1019.4
20260501164403 16 225 4.8 9.7 0.00 0.00 0.00 74 1019.4
20260501163903 16 260 4.8 11.3 0.00 0.00 0.00 75 1019.3
20260501163403 15 243 4.8 11.3 0.00 0.00 0.00 76 1019.3
20260501162903 15 216 6.4 11.3 0.00 0.00 0.00 75 1019.3
20260501162403 15 199 4.8 11.3 0.00 0.00 0.00 75 1019.3
20260501161902 15 270 6.4 11.3 0.00 0.00 0.00 75 1019.4
20260501161402 15 197 8.0 14.5 0.00 0.00 0.00 74 1019.4
20260501160902 15 221 9.7 19.3 0.00 0.00 0.00 73 1019.5
20260501160403 16 225 8.0 14.5 0.00 0.00 0.00 75 1019.5
20260501155903 15 205 9.7 19.3 0.00 0.00 0.00 74 1019.6
20260501155403 16 207 11.3 20.9 0.00 0.00 0.00 74 1019.6
20260501154903 16 204 9.7 19.3 0.00 0.00 0.00 73 1019.7
20260501153902 16 194 9.7 16.1 0.00 0.00 0.00 75 1019.8
20260501152903 16 160 8.0 14.5 0.00 0.00 0.00 75 1019.8
20260501151903 16 217 4.8 14.5 0.00 0.00 0.00 75 1019.8
20260501151403 16 211 9.7 16.1 0.00 0.00 0.00 75 1019.8
20260501150902 16 180 6.4 14.5 0.00 0.00 0.00 75 1019.8
20260501150402 16 196 9.7 16.1 0.00 0.00 0.00 75 1019.9
20260501145903 16 196 8.0 12.9 0.00 0.00 0.00 74 1020.1
20260501145403 17 192 8.0 12.9 0.00 0.00 0.00 75 1020.1
20260501144902 17 217 8.0 14.5 0.00 0.00 0.00 75 1020.1
20260501144403 17 226 3.2 8.0 0.00 0.00 0.00 76 1020.2
20260501143903 16 236 4.8 14.5 0.00 0.00 0.00 76 1020.2
20260501143402 16 234 6.4 12.9 0.00 0.00 0.00 75 1020.2
20260501142904 16 215 8.0 14.5 0.00 0.00 0.00 75 1020.2
20260501141903 16 247 4.8 12.9 0.00 0.00 0.00 75 1020.3
20260501140903 16 201 8.0 19.3 0.00 0.00 0.00 76 1020.2
20260501140403 16 199 8.0 19.3 0.00 0.00 0.00 76 1020.1
20260501135402 16 196 14.5 19.3 0.00 0.00 0.00 74 1020.1
20260501134903 17 196 8.0 19.3 0.00 0.00 0.00 74 1020.1
20260501134403 17 213 8.0 12.9 0.00 0.00 0.00 74 1020.1
20260501133903 17 187 8.0 14.5 0.00 0.00 0.00 73 1020.2
20260501133403 17 190 6.4 12.9 0.00 0.00 0.00 73 1020.2
20260501132403 17 216 3.2 12.9 0.00 0.00 0.00 75 1020.2